Location: Fredericton
(45.9636°N, 66.6431°W)
Time: 11:16:37
(UTC-04:00)

N. Korean satellite - Visible Passes

Search period start: 27 November 2020 00:00
Search period end: 07 December 2020 00:00
Orbit: 452 x 504 km, 97.2° (Epoch: 26 November)

Date Brightness Start Highest point End Pass type
(mag) Time Alt. Az. Time Alt. Az. Time Alt. Az.
27 Nov 9.6 05:04:19 10° NE 05:06:43 17° E 05:09:07 10° SE visible
27 Nov 7.1 06:36:52 10° N 06:40:10 35° WNW 06:43:29 10° SW visible
27 Nov 6.9 17:13:55 10° S 17:17:18 66° W 17:20:44 10° NNW visible
28 Nov 6.4 06:10:22 10° N 06:13:57 75° WNW 06:17:35 10° SSW visible
29 Nov 7.5 05:44:08 10° NNE 05:47:39 50° E 05:51:12 10° S visible
29 Nov 9.4 17:55:35 10° SW 17:58:11 20° W 18:00:49 10° NW visible
30 Nov 9.0 05:18:14 10° NE 05:21:16 24° E 05:24:17 10° SSE visible
30 Nov 7.6 06:51:33 10° NNW 06:54:31 24° WNW 06:57:30 10° SW visible
30 Nov 7.9 17:28:29 10° S 17:31:44 42° W 17:35:03 10° NNW visible
01 Dec 10.0 04:53:07 10° ENE 04:54:44 13° E 04:56:23 10° ESE visible
01 Dec 6.7 06:24:50 10° N 06:28:21 49° WNW 06:31:52 10° SSW visible
02 Dec 6.7 05:58:25 10° NNE 06:02:04 78° ESE 06:05:44 10° S visible
02 Dec 9.8 18:10:48 10° SW 18:12:40 14° W 18:14:32 10° WNW visible
03 Dec 8.2 05:32:18 10° NNE 05:35:41 36° E 05:39:06 10° SSE visible
03 Dec 8.1 07:06:17 10° NNW 07:08:46 18° WNW 07:11:16 10° WSW visible
03 Dec 8.8 17:43:08 10° SSW 17:46:08 28° W 17:49:10 10° NW visible
04 Dec 9.4 05:06:36 10° NE 05:09:13 18° E 05:11:49 10° SE visible
04 Dec 7.2 06:39:20 10° N 06:42:37 33° WNW 06:45:56 10° SW visible
04 Dec 7.1 17:16:18 10° S 17:19:42 61° W 17:23:09 10° NNW visible
05 Dec 6.5 06:12:44 10° N 06:16:22 69° WNW 06:20:01 10° SSW visible
06 Dec 7.3 05:46:25 10° NNE 05:50:01 55° E 05:53:38 10° S visible
06 Dec 9.5 17:57:56 10° SW 18:00:28 19° W 18:03:03 10° NW visible
